TimeCST,TemperatureF,Dew PointF,Humidity,Sea Level PressureIn,VisibilityMPH,Wind Direction,Wind SpeedMPH,Gust SpeedMPH,PrecipitationIn,Events,Conditions,WindDirDegrees,DateUTC
12:53 AM,39.9,39.0,97,30.27,6.0,Calm,Calm,-,N/A,,Clear,0,2013-03-08 06:53:00
1:53 AM,39.0,37.9,96,30.27,4.0,Calm,Calm,-,N/A,,Clear,0,2013-03-08 07:53:00
2:43 AM,39.2,37.4,93,30.26,2.5,Calm,Calm,-,N/A,,Clear,0,2013-03-08 08:43:00
2:53 AM,37.0,36.0,96,30.26,2.5,Calm,Calm,-,N/A,,Clear,0,2013-03-08 08:53:00
3:01 AM,37.4,37.4,100,30.26,3.0,Calm,Calm,-,N/A,,Clear,0,2013-03-08 09:01:00
3:23 AM,39.2,39.2,100,30.26,6.0,Calm,Calm,-,N/A,,Clear,0,2013-03-08 09:23:00
3:53 AM,39.9,39.0,97,30.27,7.0,NNW,3.5,-,N/A,,Clear,330,2013-03-08 09:53:00
4:53 AM,39.0,37.9,96,30.27,6.0,NW,3.5,-,N/A,,Clear,310,2013-03-08 10:53:00
6:53 AM,41.0,37.9,89,30.31,6.0,NW,4.6,-,N/A,,Clear,320,2013-03-08 12:53:00
7:53 AM,48.9,39.9,71,30.32,7.0,North,4.6,-,N/A,,Clear,10,2013-03-08 13:53:00
9:53 AM,57.0,39.9,53,30.33,10.0,NE,3.5,-,N/A,,Clear,40,2013-03-08 15:53:00
10:53 AM,61.0,37.0,41,30.31,10.0,Variable,4.6,-,N/A,,Clear,0,2013-03-08 16:53:00
11:53 AM,64.0,35.1,34,30.29,10.0,NNE,6.9,-,N/A,,Clear,30,2013-03-08 17:53:00
12:53 PM,66.0,33.1,29,30.26,10.0,NE,4.6,-,N/A,,Clear,50,2013-03-08 18:53:00
1:53 PM,69.1,32.0,25,30.23,10.0,NE,6.9,-,N/A,,Clear,50,2013-03-08 19:53:00
2:53 PM,70.0,27.0,20,30.22,10.0,ENE,5.8,-,N/A,,Clear,60,2013-03-08 20:53:00
3:53 PM,69.1,32.0,25,30.21,10.0,Variable,4.6,-,N/A,,Clear,0,2013-03-08 21:53:00
4:53 PM,62.1,43.0,50,30.21,10.0,South,8.1,-,N/A,,Clear,170,2013-03-08 22:53:00
5:53 PM,57.9,48.0,70,30.22,10.0,South,4.6,-,N/A,,Clear,180,2013-03-08 23:53:00
6:53 PM,57.9,44.1,60,30.24,10.0,SW,4.6,-,N/A,,Clear,220,2013-03-09 00:53:00
7:53 PM,54.0,45.0,72,30.23,10.0,Calm,Calm,-,N/A,,Clear,0,2013-03-09 01:53:00
8:53 PM,50.0,45.0,83,30.23,10.0,Calm,Calm,-,N/A,,Clear,0,2013-03-09 02:53:00
9:53 PM,48.0,45.0,89,30.22,9.0,Calm,Calm,-,N/A,,Clear,0,2013-03-09 03:53:00
10:53 PM,48.0,44.1,86,30.22,9.0,Calm,Calm,-,N/A,,Clear,0,2013-03-09 04:53:00
11:53 PM,51.1,46.0,83,30.22,10.0,West,3.5,-,N/A,,Clear,270,2013-03-09 05:53:00